Dewpoint
58 59 59 59 59 60 60 61 60 60 60 59 59 59 59 59 59 59 60 60 60 60 59 60 61 61 60 59 60 61 61 57 54 50 46 37 49 63 60 66 65 65 58 40 37 27 23 23 26 31 33 32 35 33 35 35 34 38 29 26 21 23 22 23 19 19 21 15 20 20 23 23 19 19 22 24 24 25 27 29 34 39 43 48 52 55 56 63
58 59 59 59 59 60 60 60 59 60 59 58 59 58 59 59 59 59 59 60 60 60 60 60 60 60 61 60 59 62 59 52 47 46 44 49 59 60 66 65 66 63 51 35 32 27 22 21 25 30 30 27 37 30 33 31 33 30 30 29 19 23 21 21 19 17 16 16 18 20 22 21 19 20 22 21 21 23 23 25 28 29 40 49 53 56 59 63
58 59 59 59 59 59 59 59 60 59 59 59 59 58 58 59 59 59 59 59 59 59 59 60 59 60 60 61 61 61 54 46 41 38 39 57 63 64 67 66 64 60 35 34 31 26 23 18 25 29 28 23 27 25 31 27 32 26 31 23 20 27 20 22 19 19 19 18 19 19 20 19 18 20 22 21 21 23 19 19 24 25 27 40 53 56 61 63
59 59 59 59 59 59 59 59 59 58 58 58 58 58 58 59 58 58 59 59 59 59 58 59 59 60 60 60 61 61 52 34 30 33 37 59 65 66 66 65 64 57 35 31 29 24 25 24 28 27 28 22 26 30 22 26 28 28 24 22 22 23 19 20 21 20 19 20 19 19 18 18 18 20 21 20 18 20 19 21 16 18 21 37 52 56 61 62
59 59 59 58 58 59 59 59 59 58 58 58 58 58 58 58 58 58 58 58 58 58 58 58 59 59 60 61 60 57 42 37 26 34 47 62 66 66 66 66 65 53 38 25 25 24 22 24 26 26 27 22 27 22 21 23 26 26 20 22 22 22 20 20 21 23 20 21 19 18 19 19 18 19 19 19 15 9 11 19 22 21 26 41 53 56 60 61
58 58 58 59 59 59 58 58 58 58 58 58 58 57 57 57 57 57 58 58 58 58 58 58 59 60 60 60 58 52 30 31 33 45 56 64 65 66 65 65 58 46 33 26 25 25 23 25 24 22 21 22 22 17 20 20 24 17 20 21 22 21 18 22 22 24 20 19 18 18 18 18 18 18 18 20 17 16 20 20 23 22 24 45 53 56 58 60
58 58 58 58 58 58 58 58 58 58 57 58 57 58 58 57 56 56 57 57 57 58 58 58 59 59 60 58 54 43 23 22 40 49 62 65 66 66 65 62 52 34 31 25 23 24 22 23 24 20 23 23 21 20 21 21 22 20 17 20 21 23 21 23 22 22 19 19 18 18 17 17 17 16 19 18 19 19 18 26 28 23 34 52 54 56 57 58
57 58 57 57 57 58 57 58 58 58 57 57 57 57 57 57 56 56 56 57 57 57 57 58 59 59 58 51 41 35 31 21 37 49 62 64 61 58 51 44 38 33 27 25 22 21 24 23 20 23 17 15 19 20 21 20 19 18 18 21 22 22 22 22 21 19 18 19 20 18 17 16 17 18 18 17 17 18 19 34 39 41 48 53 55 56 58 58
57 57 58 58 57 57 57 57 57 57 57 56 56 56 56 55 56 56 56 56 56 57 58 58 59 60 58 43 34 31 28 49 41 52 62 59 50 42 44 37 33 30 26 23 22 23 25 24 19 19 14 16 21 20 20 16 15 20 20 22 22 21 22 22 21 21 20 19 18 17 18 20 19 20 17 17 19 21 25 43 51 54 52 53 54 55 57 57
57 57 57 57 57 57 57 57 57 56 56 56 55 55 55 55 56 56 56 56 56 56 57 59 60 59 54 37 30 17 32 45 47 51 56 53 45 39 37 38 30 28 27 23 21 23 25 23 18 19 19 19 20 19 21 19 13 22 22 21 21 21 22 22 20 21 22 22 20 17 17 19 19 18 7 18 20 23 33 41 50 52 46 53 54 55 56 57
57 57 57 57 57 57 57 57 57 56 56 56 55 55 55 55 55 56 56 56 56 57 57 59 59 55 47 30 18 14 47 49 47 47 51 48 42 36 36 36 32 28 27 27 21 21 24 24 29 20 23 16 19 18 19 17 21 21 21 20 20 20 21 21 21 21 22 20 24 18 17 19 20 18 12 18 20 24 27 38 48 49 46 51 54 54 56 56
56 57 57 57 57 57 57 57 56 56 55 55 55 55 55 55 55 55 55 56 56 57 57 59 59 51 30 24 18 24 37 46 45 44 47 43 40 42 45 35 31 34 27 24 27 34 30 26 24 13 7 20 16 19 19 21 21 21 19 16 18 19 18 20 20 22 25 19 23 22 18 16 20 15 22 21 19 22 25 30 42 48 48 49 52 53 55 55
56 56 57 57 57 56 57 56 56 56 55 55 55 55 55 55 55 55 55 55 56 57 58 59 58 51 38 20 25 36 44 46 43 43 43 45 42 41 41 41 39 33 30 25 25 38 34 25 20 15 21 18 19 16 20 21 20 18 17 16 14 14 14 20 22 22 20 20 19 16 6 5 13 17 16 16 20 22 20 21 24 33 43 46 49 51 52 54
56 56 56 56 56 56 56 56 55 55 55 55 54 54 54 55 55 55 55 55 56 57 58 58 56 49 31 20 43 45 43 45 41 40 41 42 37 42 37 40 40 38 43 35 36 32 28 22 23 20 23 18 17 24 17 17 17 16 17 18 18 14 13 19 23 23 17 21 17 8 12 4 5 9 16 22 24 22 18 19 19 21 24 35 45 48 49 52
56 55 56 56 56 55 55 55 55 54 54 55 54 54 54 54 55 55 55 56 56 57 57 56 54 40 22 21 34 44 55 43 39 40 43 37 36 36 34 36 37 37 36 34 32 33 27 29 23 18 18 22 21 18 16 15 15 13 11 14 20 16 16 14 26 23 15 21 18 9 14 7 6 9 18 21 23 22 18 18 19 21 21 22 27 35 42 46
55 55 55 55 55 56 55 54 54 54 54 54 55 55 55 55 54 55 55 55 56 57 57 52 49 38 21 16 39 56 41 37 36 44 44 41 43 35 37 36 35 32 30 28 31 29 29 28 21 21 20 19 17 16 15 17 17 14 14 28 19 17 13 9 20 24 25 22 19 15 6 5 11 20 20 21 22 21 20 20 22 22 23 23 21 23 25 32
56 55 55 55 55 55 55 55 55 55 54 54 55 55 56 56 55 55 56 57 56 57 54 44 43 34 13 26 41 37 36 39 43 43 40 41 40 36 34 33 30 29 29 29 32 31 28 21 24 23 20 16 17 17 17 20 18 17 21 15 27 12 10 7 18 24 28 22 16 19 12 5 16 19 18 20 22 22 21 20 20 22 23 25 28 26 22 23
56 55 55 55 55 55 55 55 55 54 54 55 55 55 54 55 56 57 55 55 55 54 52 48 42 24 14 30 32 33 39 38 44 39 42 37 38 32 32 29 29 27 25 22 25 20 26 20 25 18 20 18 16 15 16 12 17 17 15 16 13 15 14 8 10 19 23 22 18 19 17 14 13 15 16 19 22 22 21 21 22 22 23 24 26 25 24 25
56 55 55 55 55 54 54 54 54 54 54 55 55 55 56 57 54 51 50 48 34 32 29 31 21 14 16 18 33 40 42 41 41 40 34 34 36 34 32 30 29 24 24 20 20 22 27 26 29 21 18 18 13 10 8 19 15 17 15 10 16 12 11 9 13 22 24 20 17 18 14 13 15 16 17 20 22 22 22 23 24 23 23 23 23 25 27 31
55 55 54 54 54 54 54 54 53 53 54 53 54 54 50 43 42 40 43 39 29 25 27 26 27 29 28 33 36 38 42 44 34 38 39 39 33 30 28 28 34 25 21 21 26 23 34 21 19 21 17 17 15 16 14 17 14 17 21 20 14 13 15 17 23 23 24 21 18 18 20 19 19 19 20 21 23 24 23 22 24 25 25 26 27 25 29 29
55 54 54 54 54 54 54 53 53 53 55 52 53 45 33 32 31 31 39 35 33 33 31 25 28 28 31 37 40 34 31 33 36 39 40 41 35 27 26 26 23 21 25 28 26 27 23 20 22 19 17 17 15 17 15 15 15 13 13 13 13 23 7 21 23 23 23 21 20 21 21 22 21 21 21 22 22 21 21 22 23 22 21 23 26 26 29 27
55 54 53 53 53 53 53 53 53 54 54 53 52 36 35 32 36 40 30 25 30 35 33 34 36 36 38 38 39 36 41 32 33 39 41 38 30 26 26 23 21 18 28 28 24 22 21 19 18 19 19 19 19 18 17 14 16 20 11 19 18 16 24 22 23 23 22 20 16 22 21 20 20 20 21 21 21 22 22 23 22 23 25 26 26 29 29 30
54 54 53 53 53 52 53 53 53 54 53 52 50 47 43 41 44 46 36 29 28 34 30 32 33 35 35 35 37 36 30 30 30 36 36 38 28 28 26 22 20 25 25 22 19 24 22 21 21 21 20 18 18 19 17 20 21 18 18 14 9 24 15 14 22 23 21 21 20 24 21 18 17 16 15 17 13 17 20 19 20 22 20 20 19 22 26 27
54 54 53 52 52 52 52 53 54 53 52 52 49 48 49 48 44 39 34 27 28 29 30 31 35 34 33 31 36 28 28 27 31 32 39 32 26 31 24 22 23 22 20 20 20 17 19 22 24 20 20 16 17 18 15 13 13 27 28 20 21 22 19 22 18 22 19 19 20 18 19 14 16 8 9 15 15 16 18 20 22 26 29 29 33 36 37 32
54 54 53 52 53 52 52 53 52 50 51 51 50 50 49 51 50 37 29 21 27 33 40 39 43 39 34 43 37 24 28 33 33 35 40 32 28 25 23 26 22 20 21 22 20 20 18 26 23 19 21 19 19 16 24 20 18 21 27 25 17 18 19 21 22 19 18 20 19 16 11 10 14 17 12 11 16 16 17 24 25 27 29 33 34 37 39 41
54 54 53 53 53 52 54 50 50 50 50 49 49 50 50 50 49 44 24 23 18 23 31 27 37 28 46 34 39 29 29 26 31 36 44 40 37 26 26 24 25 20 22 20 16 23 21 25 23 20 20 27 22 16 28 24 17 21 12 25 21 20 24 24 23 24 13 13 20 18 10 8 13 6 7 12 15 17 21 24 24 26 27 30 34 36 37 38
54 53 53 53 52 53 49 45 50 51 47 48 49 49 49 48 47 40 16 23 13 28 23 27 25 33 43 34 32 26 18 25 36 36 34 39 29 30 22 24 25 25 23 23 21 17 24 22 24 25 23 27 24 16 21 18 19 10 30 26 24 25 28 27 23 25 21 26 24 22 19 8 13 10 16 15 14 17 20 22 24 25 26 30 31 34 37 38
54 53 53 53 52 53 49 49 49 48 45 48 50 50 49 48 40 35 27 6 11 31 22 21 23 36 38 32 35 18 27 32 30 32 36 38 35 26 25 24 21 23 25 21 14 29 24 26 28 25 27 22 17 24 31 22 16 20 27 29 27 23 30 31 27 21 23 19 16 17 26 6 7 15 15 12 12 16 18 20 23 25 28 30 33 34 36 36
53 53 53 52 54 53 52 49 47 47 47 50 50 50 49 44 37 23 21 8 28 18 35 21 38 33 29 29 29 29 30 33 26 31 39 33 34 27 22 26 26 27 28 24 20 27 29 30 25 25 24 20 28 27 27 28 21 27 28 29 28 29 28 30 21 21 19 12 13 16 19 11 5 25 15 12 9 9 18 19 22 24 28 31 32 34 34 35
53 53 53 53 54 52 51 49 47 50 51 51 50 47 42 33 19 16 8 10 26 17 22 25 28 30 28 23 27 28 27 31 33 32 30 27 29 30 29 29 25 25 31 31 33 31 30 31 33 26 23 30 29 29 34 30 28 29 29 24 25 27 26 22 20 13 15 11 14 18 16 11 7 20 10 16 14 6 17 20 23 27 30 30 32 33 35 34
53 53 53 54 52 52 50 47 49 52 51 49 46 41 35 32 19 14 11 21 27 26 24 24 26 29 24 23 24 28 31 32 30 30 27 28 26 27 27 25 29 31 31 31 31 34 30 31 32 33 33 31 29 29 29 30 30 31 25 22 21 21 21 19 17 16 13 8 10 13 16 19 4 4 13 8 11 12 19 21 23 25 27 30 31 31 33 33
54 53 54 54 54 53 48 48 50 52 51 48 44 37 19 14 16 12 14 21 14 23 25 23 25 28 24 25 32 29 28 30 31 28 26 25 27 24 25 24 27 24 20 20 25 33 30 30 30 32 35 28 33 25 24 28 29 27 23 20 16 15 17 12 16 12 9 8 18 12 18 11 9 6 6 9 11 15 18 22 24 25 27 29 30 32 34 36
54 54 54 54 54 53 54 53 53 51 49 45 40 28 17 15 10 13 20 19 17 25 20 27 26 27 26 26 27 30 34 26 30 28 30 30 25 28 30 24 32 28 19 26 28 26 26 35 32 33 31 30 30 21 22 21 24 23 19 19 14 13 12 12 12 10 9 12 9 17 18 6 12 9 12 8 14 15 16 18 24 25 27 29 31 33 33 36
54 54 54 54 55 54 53 52 51 50 46 42 31 24 24 16 14 36 22 23 23 25 24 28 28 27 24 25 30 30 25 26 28 28 29 28 25 25 24 24 25 28 31 26 23 24 20 19 25 31 26 32 28 26 23 23 24 20 32 24 21 19 15 10 9 7 12 13 15 14 15 16 9 1 15 11 14 16 15 16 23 25 27 29 30 33 33 34
54 54 54 54 53 53 52 52 51 50 44 36 27 23 16 14 22 18 20 23 27 26 27 29 28 28 26 30 31 31 31 29 30 28 28 26 23 26 24 21 26 31 32 21 25 23 24 21 26 30 32 30 30 31 27 27 26 26 28 24 17 16 23 7 12 13 15 12 15 18 10 11 10 14 17 17 18 17 16 21 22 22 22 29 30 33 33 33
53 53 54 52 52 52 52 52 51 49 41 32 22 20 17 19 20 26 21 25 26 28 27 28 31 26 26 29 32 31 33 33 29 29 30 30 31 25 27 27 25 27 23 18 26 18 18 15 32 34 31 29 31 30 26 28 19 24 20 19 20 24 18 14 15 9 13 9 6 22 15 19 15 9 11 15 13 13 14 16 18 21 26 32 32 33 32 34
51 52 50 51 51 52 53 53 52 47 39 32 23 18 23 25 31 29 30 25 24 27 27 22 25 23 24 25 27 29 28 33 32 31 25 30 24 26 28 26 31 26 25 27 25 32 20 24 29 32 29 30 32 31 30 27 29 23 18 23 25 27 27 15 6 14 11 5 14 11 10 3 2 13 16 14 15 13 15 16 18 25 30 30 33 34 34 35
49 50 49 48 49 52 53 52 50 45 41 33 22 29 33 30 32 34 34 30 28 26 24 23 25 30 23 24 25 26 29 28 28 29 27 24 23 28 25 24 27 26 25 27 24 28 29 18 26 28 30 32 33 33 26 30 30 23 27 31 20 13 11 7 14 8 8 9 8 4 7 7 10 7 10 13 13 12 15 18 20 26 28 31 32 32 33 34
46 49 44 47 51 52 52 52 47 41 33 28 22 24 34 37 39 35 31 29 31 25 22 25 24 27 28 24 26 27 28 22 28 26 25 27 21 27 23 27 30 26 26 22 23 27 36 25 22 31 30 31 31 30 23 25 26 29 25 18 27 20 18 11 10 20 10 10 8 16 4 4 19 8 7 12 14 15 15 19 21 26 27 29 30 32 33 35
46 46 42 47 50 51 52 51 44 44 38 23 24 33 37 36 36 38 37 31 29 22 26 26 31 23 27 27 27 25 28 25 27 27 25 29 22 26 24 27 25 29 23 21 26 33 20 28 21 28 32 30 24 27 26 26 22 17 16 14 23 20 21 17 9 13 4 8 5 4 4 10 11 12 7 9 14 14 16 20 24 26 28 29 31 33 34 35
44 43 42 48 49 51 51 47 41 37 31 38 36 35 36 37 38 36 39 38 34 33 26 30 27 22 30 27 24 29 27 28 27 25 25 26 21 19 24 25 29 25 23 27 30 27 24 17 24 26 26 24 27 30 28 30 26 20 18 16 19 19 16 13 12 10 14 7 6 3 4 18 15 13 11 8 9 15 20 23 27 27 27 30 33 33 34 35
43 38 41 47 48 51 47 40 41 42 39 32 28 37 33 40 37 37 37 37 38 33 33 31 31 34 30 25 29 29 28 26 27 26 28 26 25 22 30 28 26 26 24 21 20 29 29 30 29 26 28 27 28 28 29 30 30 23 22 19 25 21 18 13 10 17 14 11 12 14 5 8 15 15 16 15 13 11 21 25 26 27 29 30 32 33 34 35
40 38 45 47 48 49 46 39 41 39 37 38 39 38 40 38 37 37 36 36 34 35 35 36 28 30 31 32 29 28 26 26 28 25 29 28 29 22 32 27 26 24 24 22 28 25 33 29 25 22 26 28 27 29 31 30 30 26 25 29 25 20 19 18 13 15 14 12 13 11 8 12 20 24 20 19 21 17 18 26 26 26 27 29 31 32 32 33
40 38 42 48 49 49 43 33 34 37 39 38 40 38 38 38 37 35 34 36 38 35 34 35 28 30 29 34 30 28 28 24 30 29 28 30 25 32 32 27 25 27 24 22 21 32 20 26 26 22 22 23 22 26 27 31 30 25 24 26 27 27 25 21 24 20 13 19 15 10 7 8 24 23 24 23 22 14 18 24 27 28 29 30 29 31 33 34
40 42 42 44 47 48 40 41 37 37 36 36 38 37 37 37 38 35 36 35 38 39 36 32 31 34 34 34 32 31 31 31 28 31 35 32 28 36 31 32 26 26 33 37 36 31 26 28 24 20 19 18 18 19 22 23 25 27 29 30 28 25 24 17 14 15 12 19 13 12 7 18 15 23 15 16 15 14 22 25 25 30 30 28 31 33 33 35
35 32 38 40 42 42 42 41 42 38 35 35 35 37 37 36 37 40 39 38 36 38 37 38 38 37 34 31 30 30 29 33 30 29 29 29 30 35 36 33 28 32 33 35 34 27 25 30 24 21 20 18 19 20 27 31 27 27 28 27 28 28 25 28 24 16 12 18 16 16 15 15 11 17 16 15 16 17 21 23 24 27 29 31 32 34 35 36
36 32 33 32 39 38 37 40 41 38 36 33 30 37 35 36 37 36 39 38 38 39 38 37 38 31 31 30 30 30 31 31 31 32 29 30 30 34 34 36 32 35 36 34 32 29 27 24 26 26 25 22 26 29 28 31 28 27 27 27 29 28 25 25 19 17 21 20 13 20 26 21 14 16 19 18 18 20 23 23 24 26 28 31 33 34 35 34
32 34 36 37 34 32 34 35 39 39 38 33 35 36 36 36 36 36 37 38 40 39 37 36 36 38 31 27 31 29 32 31 31 28 32 33 34 35 35 37 31 33 32 31 37 28 25 21 27 25 25 24 23 22 27 27 27 27 29 30 27 28 24 25 24 25 24 18 15 19 27 19 16 15 18 17 18 19 21 22 24 25 27 31 32 33 33 34
35 33 34 36 33 33 37 38 38 39 37 34 39 36 35 35 34 37 38 38 38 37 37 35 35 37 35 34 28 29 31 26 28 33 30 31 32 33 31 30 33 35 32 31 28 37 24 21 27 27 23 26 24 28 29 29 24 26 31 30 28 28 26 24 26 26 26 23 24 30 25 24 21 17 19 19 21 22 23 25 26 26 28 31 31 32 33 34
31 31 31 35 35 35 36 37 38 39 37 37 34 36 36 35 34 38 39 38 36 37 37 36 37 36 35 34 33 30 31 29 29 30 33 32 30 35 29 32 30 35 35 28 30 31 25 23 30 28 22 23 27 28 29 28 28 26 30 30 29 28 28 27 26 26 27 25 29 27 27 26 24 25 22 23 24 27 25 23 23 26 30 31 32 32 33 34
35 35 36 34 32 34 35 36 37 37 36 37 34 36 35 36 35 38 38 39 37 37 36 35 37 36 36 36 37 35 37 35 35 32 35 32 29 34 27 31 33 30 33 30 28 32 30 24 35 26 21 21 29 26 28 27 27 28 28 29 29 28 26 27 26 27 26 24 26 25 22 22 24 24 27 25 25 24 24 25 24 27 30 31 32 33 34 35
35 35 35 36 29 32 33 34 36 37 33 37 35 37 36 35 38 39 38 38 40 40 38 38 38 37 36 36 35 36 38 39 40 39 35 40 39 38 39 38 32 29 30 28 35 31 27 28 23 21 19 19 26 27 27 27 24 22 24 28 30 29 28 29 29 30 29 27 25 24 22 22 22 22 23 25 24 24 25 25 28 31 33 33 33 33 35 36